Starlink 11318

operational
NORAD ID: 61252 Int'l Des: 2024-175 Owner: SPXS Country: US Constellation: starlink
LEOCIRCULAR

关于 Starlink 11318

正在加载描述...

实时位置

正在加载3D地球...

即将过境

高度历史

Altitude vs Time

uPlot chart will show altitude changes over time

两行轨道根数

1 61252U 24175K 25353.66098694 -.00000258 00000-0 27281-5 0 9992
2 61252 53.1595 91.0290 0001143 83.9914 276.1234 15.69712812 71960
Epoch: Dec 19, 2025 • Age: 10 hours

当前状态

高度 364.1 km
速度 7.70 km/s
星下点 46.68°N, 105.18°E
发射日期 Sep 25, 2024
运行时间 1.2 years
类型 internet

技术详情

分类 Payload
质量 960.00 kg
干质量 910.00 kg
总质量 960.00 kg
长度 0.30 m
直径 4.10 m
跨度 29.00 m
形状 Box + pan
制造商 SPXS
平台类型 Starlink V2MD
阶段状态 In Orbit
所有者/国家 SPXS/US

大型星座

Loading constellations...